Location: Montreal
(45.5000°N, 73.5833°W)
Time: 11:41:38
(UTC-04:00)

ISS - Visible Passes

Search period start: 20 October 2019 00:00
Search period end: 30 October 2019 00:00
Orbit: 411 x 421 km, 51.6° (Epoch: 20 October)

Date Brightness Start Highest point End Pass type
(mag) Time Alt. Az. Time Alt. Az. Time Alt. Az.
23 Oct -0.6 06:14:50 10° SSE 06:16:21 13° SE 06:17:51 10° ESE visible
25 Oct -1.9 06:12:31 10° SSW 06:15:31 30° SE 06:18:30 10° ENE visible
26 Oct -1.3 05:25:28 14° S 05:27:02 19° SE 05:29:29 10° E visible
27 Oct -0.5 04:39:26 11° ESE 04:39:26 11° ESE 04:39:47 10° ESE visible
27 Oct -3.6 06:12:21 17° SW 06:14:48 73° SSE 06:18:10 10° ENE visible
28 Oct -2.9 05:26:09 45° SSE 05:26:12 45° SE 05:29:26 10° ENE visible
29 Oct -0.6 04:39:48 15° E 04:39:48 15° E 04:40:35 10° E visible
29 Oct -3.5 06:12:43 28° W 06:14:14 54° NNW 06:17:33 10° ENE visible
